Regional Weather Roundup
Issued by NWS Newport/Morehead, NC

Current Version | Previous Version | Text Only | Print | Product List | Glossary Off
Versions: 1 2 3 4 5 6 7 8 9 10 11 12 13 14 15 16 17 18 19 20 21 22 23 24 25 26 27 28 29 30 31 32 33 34 35 36 37 38 39 40 41 42 43 44 45 46 47 48 49 50
000 ASUS42 KMHX 180310 RWRMHX WEATHER ROUNDUP FOR EASTERN NORTH CAROLINA NATIONAL WEATHER SERVICE NEWPORT/MOREHEAD CITY NC 1100 PM EDT WED SEP 17 2014 NOTE: "FAIR" INDICATES FEW OR NO CLOUDS BELOW 12,000 FEET WITH NO SIGNIFICANT WEATHER AND/OR OBSTRUCTIONS TO VISIBILITY NCZ015>017-031-032-045>047-102-103-180400- NORTH COAST CITY SKY/WX TMP DP RH WIND PRES REMARKS EDENTON MOCLDY 65 62 87 NE3 29.97R ELIZABETH CITY CLOUDY 68 61 78 NE6 29.97R KITTY HAWK PTCLDY 71 60 67 E8 29.94S MANTEO CLEAR 70 61 72 NE10 29.95S $$ NCZ045>047-081-094-103-104-180400- CENTRAL COAST CITY SKY/WX TMP DP RH WIND PRES REMARKS FRISCO CLEAR 70 63 78 NE8G18 29.92S SWANQUARTER N/A 68 N/A N/A NE5 29.91R $$ NCZ095-097-098-100-101-180400- SOUTHERN COAST CITY SKY/WX TMP DP RH WIND PRES REMARKS BEAUFORT PTCLDY 72 66 81 NE7 29.92F CEDAR ISLAND N/A 75 N/A N/A NE15G23 29.97S JACKSONVILLE PTCLDY 69 64 84 NE5 29.93S NEWPORT NOT AVBL PINEY ISLAND PTCLDY 76 65 68 NE12 29.92S WILMINGTON CLEAR 70 67 90 NE8 29.92R $$ NCZ011>013-027>030-043-044-078>080-089-090>093-098-180400- COASTAL PLAIN CITY SKY/WX TMP DP RH WIND PRES REMARKS AHOSKIE CLOUDY 62 60 92 CALM 29.98S CLINTON MOCLDY 69 66 89 CALM 29.95S ELIZABETHTOWN PTCLDY 70 68 93 CALM 29.93S GOLDSBORO PTCLDY 67 67 98 CALM 29.94R GREENVILLE CLEAR 64 63 94 CALM 29.98S HAVELOCK PTCLDY 71 64 78 NE8 29.94S KENANSVILLE CLEAR 66 64 94 CALM 29.95S KINSTON PTCLDY 68 63 84 NE5 29.96S NEW BERN CLEAR 70 63 78 NE5 29.95S RICHLANDS CLEAR 66 63 88 N6 29.94S ROANOKE RAPIDS NOT AVBL ROCKY MOUNT MOCLDY 66 60 81 E5 29.96S WASHINGTON PTCLDY 65 62 88 CALM 29.96S WHITEVILLE PTCLDY 71 69 90 NE6 29.92R $$ AMZ130-135-150-152-154-156-158-170-250-252-270-ANZ085-086-088-633-658-670-180400- MARINE OBSERVATIONS STATION/POSITION TIME TEMP WIND PRES WAVE SWELL AIR SEA DIR/SP/G HT/PER HT/PER (UTC) (F) (DEG/KT/KT) (MB) (FT/S) (FT/S) CHESAPEAKE LIGHT 0200 70 70/ 15/ 16 1015.1 BUOY 44014 0300 72 77 40/ 14/ 17 1013.8 5/11 3/11 DUCK 0300 72 76 60/ 15/ 17 1013.6 2E DUCK 0300 N/A 5/13 3/13 OREGON INLET 0300 72 76 40/ 14/ 16 1013.6 BUOY 44095 0300 76 N/A 5/14 3/14 20E OREGON INLET NOT AVBL HATTERAS CG 0300 73 78 50/ 9/ 16 1013.7 DIAMOND BUOY 0300 74 40/ 14/ 19 1012.7 6/14 3/14 CAPE LOOKOUT 0200 76 50/ 20/ 21 1013.0 BEAUFORT LAB 0300 72 80 40/ 4/ 7 1012.9 30 SE NEW RIVER 0300 77 82 50/ 16/ 19 1012.5 4/13 3/13 5 SE WRIGHTSVILL 0200 74 81 60/ 16/ 19 N/A BUOY 41002 0246 78 82 350/ 10/ 12 1011.5 6/13 5/13 BUOY 41004 0300 81 83 10/ 4/ 4 1012.4 4/14 3/14 $$

USA.gov is the U.S. government's official web portal to all federal, state and local government web resources and services.